コワル-リニア彗星

158P/Kowal-LINEAR (2021)

English version
Home page
Updated on July 18, 2021

---------------------------------------------------------------------

・ プロフィール

・ 写真集

・ 軌道要素

Epoch 2021 May 26.0 TT = JDT 2459360.5
T 2021 May 10.91499 TT                                  Rudenko
q   4.7991419            (2000.0)            P               Q
n   0.08880158     Peri.  172.16006     +0.61225182     +0.78460214
a   4.9757159      Node   135.52479     -0.73277626     +0.60949252
e   0.0354871      Incl.    8.01693     -0.29696239     +0.11365895
P  11.1
From 849 observations 1979 July 24-2021 June 19, mean residual 0".8.

・ 光度変化

        m1 = 9.0 + 5 logΔ + 10.0 log r

---------------------------------------------------------------------

軌道要素はM.P.E.C. 2021-N06に掲載されたものです。
光度グラフはComet for Windowsで作成したものです。

---------------------------------------------------------------------

Copyright(C) Seiichi Yoshida (comet@aerith.net). All rights reserved.